timestamp,wind_dir_avg,wind_spd_max_dir,wind_spd_avg,wind_spd_gust,battery_voltage,lat,long
2018-12-22 00:00:00+00:00,287.0,287.0,2.4,2.81,,47.59359,-54.27349
2018-12-22 00:10:00+00:00,249.0,251.0,1.45,1.75,,47.59359,-54.27349
2018-12-22 00:20:00+00:00,293.0,288.0,1.8,2.0,,47.59359,-54.27349
2018-12-22 00:30:00+00:00,313.0,309.0,2.41,2.59,,47.59359,-54.27349
2018-12-22 00:40:00+00:00,343.0,344.0,2.74,3.15,,47.59359,-54.27349
2018-12-22 00:50:00+00:00,15.0,17.0,2.79,3.0,,47.59359,-54.27349
2018-12-22 01:00:00+00:00,356.0,355.0,3.9,4.1,,47.59359,-54.27349
2018-12-22 01:10:00+00:00,17.0,15.0,3.5,3.82,,47.59359,-54.27349
2018-12-22 01:20:00+00:00,12.0,11.0,3.64,4.03,,47.59359,-54.27349
2018-12-22 01:30:00+00:00,0.0,3.0,2.58,2.86,,47.59359,-54.27349
2018-12-22 01:40:00+00:00,10.0,11.0,2.33,2.74,,47.59359,-54.27349
2018-12-22 01:50:00+00:00,36.0,36.0,2.0,2.28,,47.59359,-54.27349
2018-12-22 02:00:00+00:00,58.0,59.0,2.66,3.11,,47.59359,-54.27349
2018-12-22 02:10:00+00:00,64.0,58.0,2.71,3.12,,47.59359,-54.27349
2018-12-22 02:20:00+00:00,40.0,41.0,2.44,2.78,,47.59359,-54.27349
2018-12-22 02:30:00+00:00,19.0,19.0,2.07,2.28,,47.59359,-54.27349
2018-12-22 02:40:00+00:00,338.0,339.0,2.52,2.84,,47.59359,-54.27349
2018-12-22 02:50:00+00:00,341.0,340.0,2.65,2.93,,47.59359,-54.27349
2018-12-22 03:00:00+00:00,0.0,1.0,2.13,2.62,,47.59359,-54.27349
2018-12-22 03:10:00+00:00,350.0,356.0,2.28,2.5,,47.59359,-54.27349
2018-12-22 03:20:00+00:00,349.0,353.0,3.27,3.73,,47.59359,-54.27349
2018-12-22 03:30:00+00:00,4.0,4.0,2.5,3.34,,47.59359,-54.27349
2018-12-22 03:40:00+00:00,13.0,1.0,1.86,2.27,,47.59359,-54.27349
2018-12-22 03:50:00+00:00,0.0,3.0,2.5,2.96,,47.59359,-54.27349
2018-12-22 04:00:00+00:00,17.0,23.0,2.15,2.56,,47.59359,-54.27349
2018-12-22 04:10:00+00:00,0.0,2.0,1.53,1.75,,47.59359,-54.27349
2018-12-22 04:20:00+00:00,25.0,20.0,1.57,1.88,,47.59359,-54.27349
2018-12-22 04:30:00+00:00,16.0,16.0,1.68,1.95,,47.59359,-54.27349
2018-12-22 04:40:00+00:00,29.0,30.0,2.1,2.49,,47.59359,-54.27349
2018-12-22 04:50:00+00:00,71.0,89.0,1.78,2.1,,47.59359,-54.27349
2018-12-22 05:00:00+00:00,124.0,124.0,1.44,1.76,,47.59359,-54.27349
2018-12-22 05:10:00+00:00,69.0,77.0,1.35,1.67,,47.59359,-54.27349
2018-12-22 05:20:00+00:00,62.0,60.0,1.82,2.32,,47.59359,-54.27349
2018-12-22 05:30:00+00:00,112.0,122.0,0.83,1.04,,47.59359,-54.27349
2018-12-22 05:40:00+00:00,100.0,111.0,1.29,1.53,,47.59359,-54.27349
2018-12-22 05:50:00+00:00,95.0,99.0,2.55,3.9,,47.59359,-54.27349
2018-12-22 06:00:00+00:00,91.0,100.0,1.52,2.19,,47.59359,-54.27349
2018-12-22 06:10:00+00:00,83.0,76.0,1.8,2.02,,47.59359,-54.27349
2018-12-22 06:20:00+00:00,96.0,108.0,1.78,2.29,,47.59359,-54.27349
2018-12-22 06:30:00+00:00,92.0,86.0,3.07,3.78,,47.59359,-54.27349
2018-12-22 06:40:00+00:00,96.0,104.0,2.5,3.56,,47.59359,-54.27349
2018-12-22 06:50:00+00:00,86.0,70.0,1.49,1.98,,47.59359,-54.27349
2018-12-22 07:00:00+00:00,350.0,337.0,0.44,0.82,,47.59359,-54.27349
2018-12-22 07:10:00+00:00,84.0,83.0,0.75,0.88,,47.59359,-54.27349
2018-12-22 07:20:00+00:00,94.0,91.0,1.13,1.3,,47.59359,-54.27349
2018-12-22 07:30:00+00:00,108.0,103.0,1.4,1.67,,47.59359,-54.27349
2018-12-22 07:40:00+00:00,102.0,124.0,1.21,1.52,,47.59359,-54.27349
2018-12-22 07:50:00+00:00,90.0,100.0,1.38,1.7,,47.59359,-54.27349
2018-12-22 08:00:00+00:00,135.0,139.0,1.18,1.44,,47.59359,-54.27349
2018-12-22 08:10:00+00:00,84.0,99.0,1.57,1.84,,47.59359,-54.27349
2018-12-22 08:20:00+00:00,107.0,123.0,1.17,1.61,,47.59359,-54.27349
2018-12-22 08:30:00+00:00,176.0,160.0,0.62,0.9,,47.59359,-54.27349
2018-12-22 08:40:00+00:00,150.0,149.0,0.9,1.03,,47.59359,-54.27349
2018-12-22 08:50:00+00:00,150.0,154.0,0.98,1.19,,47.59359,-54.27349
2018-12-22 09:00:00+00:00,184.0,197.0,1.4,1.86,,47.59359,-54.27349
2018-12-22 09:10:00+00:00,184.0,163.0,1.17,1.55,,47.59359,-54.27349
2018-12-22 09:20:00+00:00,155.0,149.0,1.69,1.95,,47.59359,-54.27349
2018-12-22 09:30:00+00:00,162.0,160.0,2.33,2.54,,47.59359,-54.27349
2018-12-22 09:40:00+00:00,171.0,162.0,2.39,2.85,,47.59359,-54.27349
2018-12-22 09:50:00+00:00,191.0,184.0,2.86,3.06,,47.59359,-54.27349
2018-12-22 10:00:00+00:00,197.0,202.0,2.61,3.16,,47.59359,-54.27349
2018-12-22 10:10:00+00:00,225.0,227.0,3.03,3.29,,47.59359,-54.27349
2018-12-22 10:20:00+00:00,246.0,248.0,3.28,3.6,,47.59359,-54.27349
2018-12-22 10:30:00+00:00,243.0,244.0,2.81,3.13,,47.59359,-54.27349
2018-12-22 10:40:00+00:00,246.0,251.0,3.78,4.31,,47.59359,-54.27349
2018-12-22 10:50:00+00:00,242.0,235.0,4.12,5.13,,47.59359,-54.27349
2018-12-22 11:00:00+00:00,240.0,241.0,5.02,5.59,,47.59359,-54.27349
2018-12-22 11:10:00+00:00,232.0,234.0,6.27,7.15,,47.59359,-54.27349
2018-12-22 11:20:00+00:00,232.0,232.0,6.64,7.2,,47.59359,-54.27349
2018-12-22 11:30:00+00:00,227.0,225.0,6.45,7.06,,47.59359,-54.27349
2018-12-22 11:40:00+00:00,224.0,221.0,6.76,7.52,,47.59359,-54.27349
2018-12-22 11:50:00+00:00,223.0,223.0,6.37,6.91,,47.59359,-54.27349
2018-12-22 12:00:00+00:00,226.0,229.0,6.24,6.97,,47.59359,-54.27349
2018-12-22 12:10:00+00:00,230.0,233.0,6.07,6.74,,47.59359,-54.27349
2018-12-22 12:20:00+00:00,231.0,221.0,6.55,7.33,,47.59359,-54.27349
2018-12-22 12:30:00+00:00,221.0,219.0,5.72,6.81,,47.59359,-54.27349
2018-12-22 12:40:00+00:00,217.0,218.0,5.32,5.71,,47.59359,-54.27349
2018-12-22 12:50:00+00:00,191.0,198.0,4.04,4.44,,47.59359,-54.27349
2018-12-22 13:00:00+00:00,180.0,185.0,3.84,4.33,,47.59359,-54.27349
2018-12-22 13:10:00+00:00,182.0,181.0,4.96,5.43,,47.59359,-54.27349
2018-12-22 13:20:00+00:00,198.0,202.0,6.47,7.43,,47.59359,-54.27349
2018-12-22 13:30:00+00:00,191.0,190.0,5.27,5.66,,47.59359,-54.27349
2018-12-22 13:40:00+00:00,176.0,177.0,4.57,5.24,,47.59359,-54.27349
2018-12-22 13:50:00+00:00,184.0,185.0,4.23,4.54,,47.59359,-54.27349
2018-12-22 14:00:00+00:00,186.0,179.0,4.48,5.37,,47.59359,-54.27349
2018-12-22 14:10:00+00:00,182.0,180.0,3.85,4.87,,47.59359,-54.27349
2018-12-22 14:20:00+00:00,183.0,186.0,4.9,5.28,,47.59359,-54.27349
2018-12-22 14:30:00+00:00,185.0,188.0,5.08,5.71,,47.59359,-54.27349
2018-12-22 14:40:00+00:00,194.0,195.0,5.38,5.8,,47.59359,-54.27349
2018-12-22 14:50:00+00:00,186.0,187.0,5.14,5.61,,47.59359,-54.27349
2018-12-22 15:00:00+00:00,187.0,187.0,5.16,5.9,,47.59359,-54.27349
2018-12-22 15:10:00+00:00,180.0,181.0,4.47,4.86,,47.59359,-54.27349
2018-12-22 15:20:00+00:00,178.0,176.0,4.84,5.34,,47.59359,-54.27349
2018-12-22 15:30:00+00:00,189.0,194.0,4.77,5.09,,47.59359,-54.27349
2018-12-22 15:40:00+00:00,217.0,221.0,4.82,5.46,,47.59359,-54.27349
2018-12-22 15:50:00+00:00,227.0,229.0,6.51,7.49,,47.59359,-54.27349
2018-12-22 16:00:00+00:00,202.0,194.0,5.95,7.03,,47.59359,-54.27349
2018-12-22 16:10:00+00:00,216.0,214.0,5.73,6.19,,47.59359,-54.27349
2018-12-22 16:20:00+00:00,224.0,230.0,7.09,8.81,,47.59359,-54.27349
2018-12-22 16:30:00+00:00,201.0,199.0,6.86,7.95,,47.59359,-54.27349
2018-12-22 16:40:00+00:00,223.0,220.0,6.69,7.42,,47.59359,-54.27349
2018-12-22 16:50:00+00:00,228.0,222.0,8.83,10.59,,47.59359,-54.27349
2018-12-22 17:00:00+00:00,213.0,210.0,8.36,9.45,,47.59359,-54.27349
2018-12-22 17:10:00+00:00,212.0,222.0,9.52,10.86,,47.59359,-54.27349
2018-12-22 17:20:00+00:00,206.0,207.0,8.27,9.55,,47.59359,-54.27349
2018-12-22 17:30:00+00:00,209.0,208.0,7.07,7.88,,47.59359,-54.27349
2018-12-22 17:40:00+00:00,214.0,209.0,8.82,9.48,,47.59359,-54.27349
2018-12-22 17:50:00+00:00,218.0,216.0,8.28,9.02,,47.59359,-54.27349
2018-12-22 18:00:00+00:00,215.0,217.0,7.89,8.96,,47.59359,-54.27349
2018-12-22 18:10:00+00:00,214.0,218.0,8.0,9.18,,47.59359,-54.27349
2018-12-22 18:20:00+00:00,219.0,219.0,7.15,8.26,,47.59359,-54.27349
2018-12-22 18:30:00+00:00,230.0,231.0,6.67,7.43,,47.59359,-54.27349
2018-12-22 18:40:00+00:00,213.0,215.0,9.11,10.17,,47.59359,-54.27349
2018-12-22 18:50:00+00:00,216.0,213.0,8.58,10.13,,47.59359,-54.27349
2018-12-22 19:00:00+00:00,214.0,216.0,7.49,8.06,,47.59359,-54.27349
2018-12-22 19:10:00+00:00,218.0,224.0,6.65,7.37,,47.59359,-54.27349
2018-12-22 19:20:00+00:00,211.0,204.0,6.37,9.06,,47.59359,-54.27349
2018-12-22 19:30:00+00:00,225.0,227.0,4.08,4.63,,47.59359,-54.27349
2018-12-22 19:40:00+00:00,215.0,206.0,3.47,5.16,,47.59359,-54.27349
2018-12-22 19:50:00+00:00,153.0,161.0,3.29,4.12,,47.59359,-54.27349
2018-12-22 20:00:00+00:00,144.0,137.0,2.5,3.05,,47.59359,-54.27349
2018-12-22 20:10:00+00:00,309.0,305.0,1.49,2.01,,47.59359,-54.27349
2018-12-22 20:20:00+00:00,117.0,111.0,0.62,1.02,,47.59359,-54.27349
2018-12-22 20:30:00+00:00,49.0,29.0,1.26,2.03,,47.59359,-54.27349
2018-12-22 20:40:00+00:00,155.0,159.0,1.94,2.5,,47.59359,-54.27349
2018-12-22 20:50:00+00:00,88.0,81.0,0.64,1.21,,47.59359,-54.27349
2018-12-22 21:00:00+00:00,181.0,186.0,2.4,3.23,,47.59359,-54.27349
2018-12-22 21:10:00+00:00,151.0,157.0,3.03,3.87,,47.59359,-54.27349
2018-12-22 21:20:00+00:00,117.0,110.0,1.53,1.9,,47.59359,-54.27349
2018-12-22 21:30:00+00:00,192.0,186.0,4.04,5.16,,47.59359,-54.27349
2018-12-22 21:40:00+00:00,216.0,199.0,2.63,3.67,,47.59359,-54.27349
2018-12-22 21:50:00+00:00,249.0,225.0,2.05,2.63,,47.59359,-54.27349
2018-12-22 22:00:00+00:00,192.0,212.0,2.94,4.39,,47.59359,-54.27349
2018-12-22 22:10:00+00:00,196.0,199.0,6.4,8.03,,47.59359,-54.27349
2018-12-22 22:20:00+00:00,207.0,197.0,6.27,8.42,,47.59359,-54.27349
2018-12-22 22:30:00+00:00,179.0,174.0,11.26,13.83,,47.59359,-54.27349
2018-12-22 22:40:00+00:00,176.0,183.0,12.78,15.45,,47.59359,-54.27349
2018-12-22 22:50:00+00:00,175.0,176.0,12.81,15.02,,47.59359,-54.27349
2018-12-22 23:00:00+00:00,172.0,169.0,14.06,17.24,,47.59359,-54.27349
2018-12-22 23:10:00+00:00,170.0,171.0,14.38,16.43,,47.59359,-54.27349
2018-12-22 23:20:00+00:00,191.0,194.0,9.8,11.98,,47.59359,-54.27349
2018-12-22 23:30:00+00:00,199.0,206.0,9.46,11.41,,47.59359,-54.27349
2018-12-22 23:40:00+00:00,194.0,192.0,8.69,10.46,,47.59359,-54.27349
2018-12-22 23:50:00+00:00,187.0,180.0,11.59,14.91,,47.59359,-54.27349
